Location: *
(51.8167°N, 12.5000°E)
Time: 16:39:39
(UTC+00:00)

Spot 2 Rocket - Pass Details

Date: 16 September 2019
Orbit: 758 x 772 km, 98.6° (Epoch: 19 October)

Event Time Altitude Azimuth Distance (km) Brightness Sun altitude
Exits shadow 19:57:19 45° 178° (S) 1,036 3.8 -22.8°
Maximum altitude 19:58:54 78° 256° (WSW) 783 3.5 -23.0°
Drops below altitude 10° 20:03:59 10° 342° (NNW) 2,301 6.7 -23.6°
Sets 20:06:18 0° 344° (NNW) 3,230 7.6 -23.9°
